Ellsworth AFB, SD

11:31 AM MDT on May 26, 2017 (GMT -0600)
Ellsworth Air Force Base

Weather History for KRCA - September, 2013

Change the Weather History Date:

Wednesday, September 11, 2013

  Actual Average Record
Temperature  
Mean Temperature 68 °F -  
Max Temperature 81 °F 76 °F 91 °F (2011)
Min Temperature 55 °F 50 °F 32 °F (2014)
Cooling Degree Days 3    
Growing Degree Days 18 (Base 50)    
Moisture  
Dew Point 49 °F    
Average Humidity 51    
Maximum Humidity 85    
Minimum Humidity 23    
Precipitation  
Precipitation 0.00 in - - ()
Sea Level Pressure  
Sea Level Pressure 30.18 in    
Wind  
Wind Speed 4 mph (WNW)    
Max Wind Speed 10 mph    
Max Gust Speed -    
Visibility 10 miles    
Events      
Averages and records for this station are not official NWS values.
T = Trace of Precipitation, MM = Missing Value Source: NWS Daily Summary

Daily Weather History Graph

Daily Weather History Graph

Search for Another Location

Airport or City:

Trip Planner

Search our weather history database for the weather conditions in past years. The results will help you decide how hot, cold, wet, or windy it might be!

Date:

Astronomy

Sep. 11, 2013 Rise Set
Actual Time 6:27 AM MDT 7:09 PM MDT
Civil Twilight 5:58 AM MDT 7:38 PM MDT
Nautical Twilight 5:23 AM MDT 8:13 PM MDT
Astronomical Twilight 4:47 AM MDT 8:49 PM MDT
Moon 1:11 PM MDT (9/11) 10:53 PM MDT (9/11)
Length of Visible Light 13h 40m
Length of Day
12h 42m
Waxing Crescent, 39% of the Moon is Illuminated
Sep 11
Waxing Crescent
Sep 12
First Quarter
Sep 19
Full
Sep 26
Last Quarter
Oct 4
New

Hourly Weather History & Observations

Time (MDT) Temp. Dew Point Humidity Pressure Visibility Wind Dir Wind Speed Gust Speed Precip Events Conditions
12:58 AM 58.1 °F 52.3 °F 81% 30.13 in 10.0 mi West 4.6 mph - N/A   Clear
1:58 AM 57.2 °F 51.8 °F 82% 30.13 in 10.0 mi West 5.8 mph - N/A   Clear
2:58 AM 55.8 °F 51.3 °F 85% 30.13 in 10.0 mi West 4.6 mph - N/A   Clear
3:58 AM 56.7 °F 51.1 °F 82% 30.13 in 10.0 mi West 4.6 mph - N/A   Clear
4:58 AM 56.1 °F 51.1 °F 83% 30.14 in 10.0 mi West 3.5 mph - N/A   Clear
5:58 AM 56.1 °F 51.4 °F 84% 30.14 in 10.0 mi West 4.6 mph - N/A   Clear
6:58 AM 55.9 °F 51.1 °F 84% 30.16 in 10.0 mi NW 5.8 mph - N/A   Clear
7:58 AM 59.4 °F 54.0 °F 82% 30.17 in 10.0 mi West 2.3 mph - N/A   Clear
8:58 AM 64.9 °F 54.9 °F 70% 30.17 in 10.0 mi Calm Calm - N/A   Clear
9:58 AM 69.1 °F 55.9 °F 63% 30.18 in 10.0 mi SW 1.2 mph - N/A   Clear
10:58 AM 73.0 °F 53.4 °F 50% 30.18 in 10.0 mi Variable 1.2 mph - N/A   Partly Cloudy
11:21 AM 75.2 °F 53.6 °F 47% 30.23 in 10.0 mi Variable 1.2 mph - N/A   Light Drizzle
11:37 AM 77.0 °F 51.8 °F 41% 30.23 in 10.0 mi Variable 4.6 mph - N/A   Clear
11:58 AM 77.2 °F 49.5 °F 38% 30.18 in 10.0 mi West 3.5 mph - 0.00 in   Clear
12:58 PM 79.0 °F 49.3 °F 35% 30.17 in 10.0 mi Variable 2.3 mph - N/A   Clear
1:00 PM 78.8 °F 50.0 °F 36% 30.22 in 10.0 mi SSE 5.8 mph - N/A   Light Drizzle
1:04 PM 78.8 °F 48.2 °F 34% 30.22 in 10.0 mi ESE 4.6 mph - N/A   Clear
1:05 PM 78.8 °F 48.2 °F 34% 30.22 in 10.0 mi ESE 3.5 mph - N/A   Light Drizzle
1:18 PM 78.8 °F 48.2 °F 34% 30.22 in 10.0 mi SSE 5.8 mph - N/A   Clear
1:58 PM 80.6 °F 46.6 °F 30% 30.16 in 10.0 mi Variable 1.2 mph - 0.00 in   Clear
2:58 PM 81.1 °F 44.6 °F 28% 30.17 in 10.0 mi Variable 5.8 mph - N/A   Clear
3:58 PM 81.3 °F 45.3 °F 28% 30.16 in 10.0 mi NE 5.8 mph - N/A   Clear
4:58 PM 80.6 °F 39.7 °F 23% 30.16 in 10.0 mi North 10.4 mph - N/A   Clear
5:58 PM 79.2 °F 40.6 °F 25% 30.16 in 10.0 mi NE 3.5 mph - N/A   Clear
6:58 PM 76.8 °F 41.9 °F 29% 30.17 in 10.0 mi NE 3.5 mph - N/A   Clear
7:58 PM 75.2 °F 41.0 °F 29% 30.18 in 10.0 mi NNE 1.2 mph - N/A   Clear
8:58 PM 70.5 °F 42.8 °F 37% 30.19 in 10.0 mi Calm Calm - N/A   Clear
9:58 PM 67.1 °F 47.3 °F 49% 30.19 in 10.0 mi Calm Calm - N/A   Clear
10:58 PM 64.6 °F 47.8 °F 55% 30.21 in 10.0 mi WNW 2.3 mph - N/A   Clear
11:58 PM 65.5 °F 44.2 °F 46% 30.22 in 10.0 mi ENE 5.8 mph - N/A   Clear